Location: *
(18.5200°S, 46.4500°E)
Time: 22:54:18
(UTC+00:00)

GPS 2-15 Rocket1 - Pass Details

Date: 19 July 2019
Orbit: 624 x 675 km, 19.8° (Epoch: 20 August)

Event Time Altitude Azimuth Distance (km) Brightness Sun altitude
Rises 16:00:12 0° 269° (W) 2,930 7.9 -19.9°
Reaches altitude 10° 16:02:36 10° 267° (W) 2,015 6.7 -20.5°
Maximum altitude 16:07:19 76° 182° (S) 651 3.0 -21.6°
Enters shadow 16:08:03 61° 119° (ESE) 713 3.0 -21.7°
